Location: Newark
(54.4333°N, 18.5500°E)
Time: 10:28:40
(UTC+00:00)

Envisat - Pass Details

Date: 11 December 2019
Orbit: 764 x 766 km, 98.1° (Epoch: 23 January)

Event Time Altitude Azimuth Distance (km) Brightness Sun altitude
Rises 04:00:25 0° 28° (NNE) 3,248 6.5 -24.0°
Reaches altitude 10° 04:04:09 10° 56° (NE) 2,314 6.1 -23.5°
Maximum altitude 04:06:26 13° 83° (E) 2,110 6.2 -23.1°
Drops below altitude 10° 04:08:43 10° 110° (ESE) 2,306 6.5 -22.8°
Sets 04:12:24 0° 138° (SE) 3,225 7.0 -22.3°
